Regional Weather Roundup
Issued by NWS

Home | Current Version | Previous Version | Text Only | Print | Product List | Glossary Off
Versions: 1 2 3 4 5 6 7 8 9 10 11 12 13 14 15 16 17 18 19 20 21 22 23 24 25 26 27 28 29 30 31 32 33 34 35 36 37 38 39 40 41 42 43 44 45 46 47 48 49 50

000
ASUS45 KPSR 220810
RWRAZ

ARIZONA REGIONAL HOURLY WEATHER ROUNDUP
NATIONAL WEATHER SERVICE PHOENIX AZ
100 AM MST FRI AUG 22 2014

NOTE: FAIR INDICATES FEW OR NO CLOUDS BELOW 12,000 FEET WITH NO
SIGNIFICANT WEATHER AND/OR OBSTRUCTIONS TO VISIBILITY.

AZZ001>003-036-220900-
NORTHWEST ARIZONA

CITY           SKY/WX    TMP DP  RH WIND       PRES   REMARKS
BULLHEAD CITY  PTCLDY    75  63  64 SE3       29.94F
KINGMAN        CLEAR     64  55  72 SE9       30.07F
$$

AZZ004>008-015-016-018-220900-
NORTH CENTRAL ARIZONA

CITY           SKY/WX    TMP DP  RH WIND       PRES   REMARKS
GRAND CANYON     N/A    N/A N/A N/A MISG        N/A
WILLIAMS       MOCLDY    50  48  93 SE8       30.32S
PRESCOTT       CLOUDY    61  54  77 CALM      30.18S
FLAGSTAFF      CLOUDY    53  51  93 SE3       30.29S
PAYSON         DRIZZLE   61  57  88 NW5       30.21F
PAGE           CLOUDY    67  57  70 NE3       30.12F
$$

AZZ009>014-017-220900-
NORTHEAST ARIZONA

CITY           SKY/WX    TMP DP  RH WIND       PRES   REMARKS
WINSLOW        MOCLDY    62  59  90 CALM      30.17F
SAINT JOHNS    MOCLDY    59  57  93 CALM      30.19F
WINDOW ROCK    CLOUDY    57  53  86 CALM      30.26
SHOW LOW       MOCLDY    55  52  88 CALM      30.26F
$$

AZZ023-220900-
GREATER PHOENIX AREA

CITY           SKY/WX    TMP DP  RH WIND       PRES   REMARKS
PHOENIX        PTCLDY    74  66  76 SE6       29.95F
BUCKEYE          N/A    N/A N/A N/A S3        29.96F
LUKE AFB       NOT AVBL
DEER VALLEY    PTCLDY    73  63  70 NE7       29.95F
SCOTTSDALE     PTCLDY    71  67  87 SW3       29.97F
MESA-GATEWAY   CLEAR     75  63  64 E7        29.98F
$$

AZZ027-028-220900-
SOUTHWEST MARICOPA COUNTY AND PINAL COUNTY

CITY           SKY/WX    TMP DP  RH WIND       PRES   REMARKS
CASA GRANDE    CLEAR     72  63  73 CALM      29.99S
$$

AZZ503-504-507>509-220900-
SOUTHEAST ARIZONA

CITY           SKY/WX    TMP DP  RH WIND       PRES   REMARKS
TUCSON         CLOUDY    71  61  70 NW5       30.06F
DAVIS-MONTHAN  MOCLDY    69  62  78 W3        30.05F
NOGALES        CLOUDY    64  62  93 CALM      30.12F
SIERRA VISTA   MOCLDY    64  57  77 W7        30.15F
DOUGLAS        MOCLDY    65  62  90 N5        30.13S
SAFFORD        PTCLDY    72  60  66 W9        30.02F
$$

AZZ020-021-025-026-031-220900-
SOUTHWEST ARIZONA

CITY           SKY/WX    TMP DP  RH WIND       PRES   REMARKS
YUMA           CLEAR     74  65  73 NE5       29.92S
$$

CAZ031-033-041-043-047-048-061-220900-
SOUTHERN CALIFORNIA

CITY           SKY/WX    TMP DP  RH WIND       PRES   REMARKS
DOWNTOWN L.A.  CLEAR     68  61  78 CALM      29.95S
L.A. AIRPORT   PTCLDY    68  62  81 W6        29.95F
SAN DIEGO      MOCLDY    70  64  83 N3        29.97S
BURBANK        CLEAR     70  59  68 CALM      29.95F
ONTARIO        CLEAR     71  61  70 SW3       29.96S
RIVERSIDE      CLEAR     72  61  68 CALM      29.96F
PALM SPRINGS   CLEAR     79  60  52 W3        29.93F
EL CENTRO NAS  PTCLDY    71  67  87 SE5       29.89F
IMPERIAL       PTCLDY    72  68  87 SE5       29.89F
BLYTHE         PTCLDY    71  67  87 E7        29.93F
NEEDLES        PTCLDY    77  58  51 S6        29.95S
$$

NVZ020-UTZ003-220900-
SOUTHERN NEVADA-UTAH

CITY           SKY/WX    TMP DP  RH WIND       PRES   REMARKS
LAS VEGAS      PTCLDY    73  51  46 S9        29.95S
SALT LAKE CITY MOCLDY    63  53  70 SW6       30.02R
$$

NMZ009-TXZ055-220900-
NEW MEXICO-WEST TEXAS

CITY           SKY/WX    TMP DP  RH WIND       PRES   REMARKS
ALBUQUERQUE    MOCLDY    71  47  42 S6        30.13S
EL PASO        RAIN      68  65  90 S13G22    30.12R FOG
$$


........................KEY........................
SKY/WX - SKY CONDITION/WEATHER
TMP    - TEMPERATURE IN FAHRENHEIT
DP     - DEW POINT IN FAHRENHEIT
RH     - RELATIVE HUMIDITY IN PERCENT
WIND   - DIRECTION AND SPEED IN MILES PER HOUR (MPH)
VRB    - VARIABLE WIND DIRECTION
PRES   - MEAN SEA LEVEL PRESSURE IN INCHES OF MERCURY
         F - FALLING PRESSURE   R - RISING PRESSURE
         S - STEADY PRESSURE
VSB    - VISIBILITY IN MILES
HX     - HEAT INDEX IN FAHRENHEIT
WCI    - WIND CHILL INDEX IN FAHRENHEIT
TC     - TEMPERATURE IN CELSIUS WHICH IS ALSO KNOWN AS
         TEMPERATURE IN CENTIGRADE
AFB    - AIR FORCE BASE
         LUKE AFB IS LUKE AIR FORCE BASE
         DAVIS-MONTHAN IS DAVIS-MONTHAN AIR FORCE BASE
NAS    - NAVAL AIR STATION
         EL CENTRO NAS IS EL CENTRO NAVAL AIR STATION
N/A    - NOT AVAILABLE



USA.gov is the U.S. government's official web portal to all federal, state and local government web resources and services.